OPS 4682 DEB, 38372

Orbit data source: Space-Track

OPS 4682 DEB, 38372 is space debris in LEO originally from a launch on Sat, 03 Apr 1965 UTC launched from the Air Force Western Test Range (AFWTR). Debris objects in space refer to the collection of defunct objects orbiting the Earth. Examples of debris include non-operational satellites, rocket bodies, and fragments generated from explosions, collisions, or faulty payload assembly.

Loading next visibility...
Identifier
38372, 1965-027BZ
Orbit
LEO
Country
Flag of USUS
Related business
Manufacturer
Unknown
Mission
Spacecraft
Bus & Motor
Unknown
Mass
Unknown
Launch date (UTC)
1965-04-03 (61 years ago)
Launch vehicle
Unknown
Launch site
Air Force Western Test Range (AFWTR)
Object type
Payload
Rocket body
Debris
Shape & HBR
Unknown shape, 0.1 m
Radar Cross Section
Medium (>0.1 m² and <1 m²)

Expand to show TLE details & history
Last TLE update: 3 days ago

TLE from 3 days ago
0 OPS 4682 DEB
1 38372U 65027BZ  26148.15256922  .00000619  00000-0  20890-2 0  9993
2 38372  90.3125  39.3961 0032690  86.5706 273.9154 12.97924718660876
Epoch: 2026-05-28T03:39Z
TLE epoch observation values (Epoch: 2026-05-28T03:39:41.980Z)
Latitude
0.00004°
Longitude
98.76978°
Altitude
1,271.483 km
Speed
7.221 km/s
True Right ascension
02h 37m 35s
True Declination
0° 00' 00"
Sunlit
Object was in daylight at epoch
Visualization orbit readout
Latitude
Unknown
Longitude
Unknown
Altitude
Unknown
Speed
Unknown
Apparent Right ascension
Unknown
Apparent Declination
Unknown
Sunlit
N/A
Visualization observer readout
Local Sidereal Time
02:47:28
Azimuth
Unknown
Elevation
Unknown
Doppler factor
Unknown
Orbital elements
Apogee altitude
1,292.352 km
Perigee altitude
1,242.366 km
Semi-major axis
7,645.496 km
Eccentricity
0.00327
Inclination
90.3125°
RAAN
39.3961°
Arg. of periapsis
86.5706°
True anomaly
273.54157°
Mean anomaly
273.9154°
Eccentric anomaly
273.7285°
Mean motion
3.24664 °/min
Orbital period
110.88 mins
BSTAR
0.002089
Loading maneuver chart data...
Computing Atmospheric mass density...
Loading historical data...
Loading historical data...
Loading historical data...
Loading historical data...
Loading historical data...
Loading historical data...
Loading historical data...

Documentation

Showing up to 5 results
|